SWR1244 LSZH-LGIR

Flight info

Callsign SWR1244
Flight time 2h 38m
Altitude 37000
Route DEGES Z2 XEBIX L607 ELMEM N606 GIRIS DCT NIVAS DCT PEVAL DCT NERRA/N0447F390 DCT PETAK DCT PINDO DCT KEA UL607 GIVIS T514 XAVIS
Aircraft A320/M-SDE3FGHIRWY/LB1

Departure

Time 2026-04-30 15:11
Airport Zürich Airport (LSZH)

Arrival

Time 2026-04-30 17:49
Airport Heraklion International Nikos Kazantzakis Airport (LGIR)
Time Latitude Longitude Altitude Speed Heading
2026-04-30 14:34 47.45353 8.55701 1405 ft 0 kts
2026-04-30 15:01 47.45323 8.55696 1400 ft 4 kts
2026-04-30 15:01 47.45296 8.55692 1403 ft 3 kts
2026-04-30 15:01 47.45263 8.55717 1407 ft 4 kts 270°
2026-04-30 15:02 47.45264 8.55756 1401 ft 3 kts 273°
2026-04-30 15:02 47.45263 8.55762 1400 ft 0 kts 275°
2026-04-30 15:05 47.45264 8.55759 1400 ft 2 kts 275°
2026-04-30 15:06 47.45282 8.55549 1397 ft 11 kts 292°
2026-04-30 15:06 47.45377 8.55289 1410 ft 14 kts 296°
2026-04-30 15:07 47.45458 8.54973 1405 ft 21 kts 290°
2026-04-30 15:07 47.45570 8.54480 1394 ft 29 kts 289°
2026-04-30 15:08 47.45698 8.53902 1400 ft 26 kts 288°
2026-04-30 15:08 47.45869 8.53797 1396 ft 15 kts 38°
2026-04-30 15:09 47.45884 8.53889 1396 ft 0 kts 95°
2026-04-30 15:09 47.45883 8.53896 1396 ft 3 kts 95°
2026-04-30 15:10 47.45780 8.55342 1401 ft 148 kts 93°
2026-04-30 15:11 47.45236 8.63255 3737 ft 238 kts 91°
2026-04-30 15:11 47.45489 8.68307 5454 ft 253 kts 80°
2026-04-30 15:12 47.46430 8.76332 7969 ft 275 kts 81°
2026-04-30 15:13 47.46740 8.82060 9788 ft 282 kts 94°
2026-04-30 15:14 47.44934 8.94460 12249 ft 329 kts 100°
2026-04-30 15:14 47.43512 9.04495 14636 ft 337 kts 99°
2026-04-30 15:16 47.41595 9.21931 17980 ft 351 kts 82°
2026-04-30 15:17 47.43706 9.36241 20342 ft 362 kts 75°
2026-04-30 15:18 47.46471 9.54676 23127 ft 376 kts 75°
2026-04-30 15:19 47.46935 9.66340 24626 ft 387 kts 91°
2026-04-30 17:39 35.39432 25.20891 3010 ft 192 kts 69°
2026-04-30 17:41 35.43185 25.33212 3001 ft 198 kts 69°
2026-04-30 17:42 35.44135 25.36341 3007 ft 195 kts 69°
2026-04-30 17:42 35.42959 25.40473 3011 ft 190 kts 153°
2026-04-30 17:43 35.40646 25.42047 3003 ft 190 kts 153°
2026-04-30 17:44 35.37115 25.44030 3001 ft 185 kts 185°
2026-04-30 17:44 35.34676 25.40863 3011 ft 181 kts 245°
2026-04-30 17:46 35.32842 25.34360 3013 ft 149 kts 274°
2026-04-30 17:47 35.33200 25.29234 2269 ft 153 kts 275°
2026-04-30 17:48 35.33556 25.24068 1037 ft 147 kts 275°
2026-04-30 17:48 35.33820 25.20329 365 ft 147 kts 275°
2026-04-30 17:49 35.34056 25.16668 77 ft 9 kts 226°
2026-04-30 17:50 35.33955 25.16885 84 ft 10 kts 96°
2026-04-30 17:51 35.33932 25.17212 84 ft 18 kts 94°
2026-04-30 17:52 35.33895 25.17713 91 ft 12 kts 102°
2026-04-30 17:53 35.33868 25.17665 90 ft 0 kts 320°
2026-04-30 17:54 35.33868 25.17664 90 ft 0 kts 320°